#timestamp,LO_Frequency,Hit,StdDev 
1553029215.2,286046999.8,N
1553029235.1,286047000.0,N
1553029236.0,286047000.0,N
1553029255.8,286047000.7,N
1553029275.6,286047000.2,N
1553029295.5,286047000.8,N
1553029315.3,286047002.3,N
1553029335.1,286047002.4,N
1553029355.9,286047002.3,N
1553029375.7,286046998.1,N
1553029395.6,286047000.0,N
1553029415.4,286047000.6,N
1553029435.2,286047001.2,N
1553029455.1,286047000.8,N
1553029456.0,286047000.8,N
1553029475.8,286046998.4,N
1553029495.6,286046998.8,N
1553029515.5,286046998.4,N
1553029535.3,286046998.7,N
1553029555.2,286046997.0,N
1553029575.9,286046998.7,N
1553029595.7,286046999.0,N
1553029615.6,286046998.6,N
1553029635.4,286046998.3,N
1553029655.2,286046996.7,N
1553029675.1,286046996.6,N
1553029676.0,286046996.6,N
1553029695.8,286046999.1,N
1553029715.7,286046999.1,N
1553029735.5,286046996.8,N
1553029755.3,286046997.3,N
1553029775.2,286046997.8,N
1553029795.0,286046995.6,N
1553029795.9,286046995.6,N
1553029815.7,286046995.1,N
1553029835.6,286046995.6,N
1553029855.4,286046996.2,N
1553029875.3,286046996.3,N
1553029895.1,286046996.0,N
1553029915.8,286046991.7,Y
1553029935.7,286046996.2,P
1553029955.5,286046995.2,P
1553029975.4,286046995.7,P
1553029995.2,286046996.4,Y
1553030015.0,286046999.0,P
1553030015.9,286046999.0,N
1553030035.8,286047001.2,N
1553030055.6,286047000.4,N
1553030075.4,286047001.2,N
1553030095.3,286047000.4,N
1553030115.1,286047000.5,N
1553030135.9,286047000.9,N
1553030155.7,286047000.1,N
1553030175.5,286047002.6,N
1553030195.4,286047002.2,N
1553030215.2,286046999.8,N
1553030235.0,286046999.7,N
1553030235.9,286046999.7,N
1553030255.8,286047001.0,N
1553030275.6,286046998.8,N
1553030295.5,286047000.3,N
1553030315.3,286047000.4,N
1553030335.1,286046999.9,N
1553030355.9,286046999.8,N
1553030375.7,286047001.1,N
1553030395.5,286046999.6,N
1553030415.4,286046996.5,N
1553030435.2,286046999.3,N
1553030455.0,286046998.2,N
1553030456.0,286046998.2,N
1553030475.8,286046998.6,N
1553030495.6,286046999.0,N
1553030515.5,286046998.7,N
1553030535.3,286046996.5,N
1553030585.2,286046999.6,E
1553030595.1,286046999.1,N
1553030596.0,286046999.1,P
1553030615.8,286046996.5,P
1553030635.7,286046998.3,N
1553030655.5,286046998.3,N
1553030675.3,286046998.2,N
1553030695.2,286046999.6,N
1553030715.0,286046997.1,Y
1553030715.9,286046997.1,P
1553030735.8,286046998.4,N
1553030755.6,286046998.7,N
1553030775.4,286046998.2,N
1553030795.3,286047000.5,N
1553030815.1,286047000.9,N
1553030835.8,286046998.9,N
1553030855.7,286046999.4,N
1553030875.5,286046997.0,N
1553030895.3,286046999.4,N
1553030915.2,286046998.8,N
1553030935.0,286046996.7,N
1553030935.9,286046996.7,N
1553030955.8,286046999.0,N
1553030975.6,286046998.7,N
1553030995.4,286046999.0,N
1553031015.3,286046999.4,N
1553031035.1,286046998.4,N
1553031055.9,286046998.9,N
1553031075.7,286046996.5,Y
1553031095.5,286047000.3,P
1553031115.4,286047000.9,N
1553031135.2,286047000.7,N
1553031155.0,286047000.8,N
1553031155.9,286047000.8,N
1553031175.8,286047000.8,N
1553031195.6,286047000.9,N
1553031215.5,286046999.9,N
1553031235.3,286047002.7,Y
1553031255.1,286047000.1,P
1553031275.9,286047002.7,P
1553031295.7,286046999.9,N
1553031315.5,286047000.8,N
1553031335.4,286046998.1,N
1553031355.2,286046999.9,N
1553031375.1,286047000.4,N
1553031376.0,286047000.4,N
1553031395.8,286047002.5,N
1553031415.6,286046999.9,N
1553031435.5,286047001.5,N
1553031455.3,286047001.8,N
1553031475.1,286047002.5,N
1553031495.9,286047002.6,N
1553031515.7,286047001.6,N
1553031535.6,286047002.3,N
1553031555.4,286047000.6,N
1553031575.2,286047002.5,N
1553031595.1,286047000.9,N
1553031596.0,286047000.9,N
1553031615.8,286047000.4,N
1553031635.6,286047002.4,N
1553031655.5,286047002.0,N
1553031675.3,286047002.6,N
1553031695.2,286047002.2,N
1553031715.9,286047004.4,Y
1553031735.7,286047002.6,P
1553031755.6,286047000.4,N
1553031775.4,286046998.6,N
1553031795.3,286046998.9,N
1553031815.1,286046998.7,N
1553031816.0,286046998.7,N
1553031835.8,286046998.8,N
1553031855.7,286046998.3,N
1553031875.5,286046999.2,N
1553031895.3,286047001.1,N
1553031915.2,286047000.8,N
1553031935.0,286046999.9,N
1553031935.9,286046999.9,N
1553031955.8,286047001.7,N
1553031975.6,286046999.7,N
1553031995.4,286047002.5,N
1553032015.3,286047002.8,N
1553032035.1,286047002.0,N
1553032055.8,286046999.9,N
1553032075.7,286047001.4,N
1553032095.5,286047002.7,N
1553032115.4,286047001.5,N
1553032135.2,286047003.9,N
1553032155.0,286047001.6,N
1553032155.9,286047001.6,N
1553032175.8,286047001.9,N
1553032195.6,286047011.9,Y
1553032215.4,286046998.2,P
1553032235.3,286047000.3,N
1553032255.1,286047002.5,N
1553032275.9,286047002.2,N
1553032295.7,286047002.5,N
1553032315.5,286047002.5,N
1553032335.4,286047000.4,N
1553032355.2,286047001.0,N
1553032375.0,286047000.4,N
1553032376.0,286047000.4,N
1553032395.8,286047000.8,N
1553032415.6,286047000.7,N
1553032435.5,286046999.8,N
1553032455.3,286046999.9,N
1553032475.1,286047000.3,N
1553032495.9,286047001.1,N
1553032515.7,286047000.7,N
1553032535.6,286047001.2,N
1553032555.4,286047004.4,Y
1553032575.2,286047002.6,P
1553032595.1,286047000.3,N
1553032596.0,286047000.3,N
1553032615.8,286047000.8,N
1553032635.6,286047000.2,N
1553032655.5,286047002.5,N
1553032675.3,286046999.8,N
1553032695.2,286046999.9,N
1553032715.9,286047002.6,N
1553032735.7,286047001.5,N
1553032755.6,286047001.8,N
1553032775.4,286047000.2,N
1553032795.2,286046999.9,N
